sat.trackr.live / text

‹ back to catalog

STARLINK-11384 [DTC]

NORAD 62088 · 2024-220A

PAYLOAD ACTIVE UNKNOWN

§ Identity

Operator
Country
US
Launch date
2024-11-25
Launch site
AFETR
Launch vehicle
Mass (kg)
RCS (m²)

Purposes: comms

External: N2YO · Heavens-Above · Gunter

§ Orbital elements

Epoch: 2026-09-21T10:17:05.352288Z

Period
91.67 min
Inclination
42.9985°
Eccentricity
0.0000770
Mean motion
15.70840668 rev/d
Perigee alt
356.0 km
Apogee alt
357.0 km
Semi-major
6,734.6 km
B*
1.0197e-3
RAAN
303.5975°
Arg perigee
202.4427°
Mean anomaly
157.6407°
Rev number
10,583

§ Raw data

STARLINK-11384 [DTC]1 62088U 24220A   26264.42853417  .00132501  00000+0  10197-2 0  99992 62088  42.9985 303.5975 0000770 202.4427 157.6407 15.70840668105832

JSON: /api/v1/satellites/62088 · /tle

For live sub-satellite position, see the globe view (requires WebGL).

§ Visibility from observer

Set your observer location to see the next 7 days of passes ≥ 10°. The values pass through the URL so the page stays shareable.

No JS? Fill the form by hand. The geolocation button needs JavaScript.